COSMOS 1375 DEB

Satellite information

Favourite Embed

Satellite Type and Status

DEBRISIN ORBIT

Key statistics

Satellite COSMOS 1375 DEB at a glance.

Uptime

15799

Days in orbit

Revolutions

≈ 13.6

Per day

Orbit

LEO

Low Earth Orbit

Inclination

65.8

Latest

Satellite identification and parameters

Extended collection of information and parameters for COSMOS 1375 DEB.

Object identification

Identified? True

Debris? True

Object name: COSMOS 1375 DEB

International designator: 1982-055AM

Object number (NORAD): 17795

Object ID (CCSDS): 17795

Country: COMMONWEALTH OF INDEPENDENT STATES (CIS)

Current information (Y/N): Y

RCS size: SMALL

Orbital parameters

Period: 105.894 minutes

Inclination: 65.8326 deg

SMA: 7414.351 km

Apoapsis: 1094.024 km

Periapsis: 978.408 km

RAAN: 222.8842 deg

Eccentricy: 0.00779676

Argument of periapsis: 311.4281 deg

Mean anomaly: 229.108 deg

Mean motion: 13.59856357 rev/day

Mean motion (dot): -0.00000047 rev/day2

B* drag term: 0.000040639867 1/REarth

Two-line elements (TLE)

Creation date: Sept. 7, 2025, 3:09 a.m.

Reference frame: TEME

Reference center: EARTH

Epoch: Sept. 6, 2025, 4:59 p.m. UTC

TLE line 0: 0 COSMOS 1375 DEB

TLE line 1: 1 17795U 82055AM 25249.70784571 -.00000047 00000-0 40640-4 0 9990

TLE line 2: 2 17795 65.8326 222.8842 0077968 311.4281 229.1080 13.59856357979678

Live tracking on map

Real-time ground track for satellite COSMOS 1375 DEB.

In-orbit conjunctions

A list of the most updated potential collisions computed for object COSMOS 1375 DEB.

Target Orbit TCA Probability of collision Miss distance Type
COSMOS 886 DEB LEO 2025-02-12 08:27:07 0.0003844798 37.0 (m) DEBRIS
SL-8 R/B LEO 2024-10-16 22:01:44 0.0001532752 416.0 (m) ROCKET BODY
NIMBUS 2 DEB SSO 2024-08-29 02:31:29 0.0001051687 78.0 (m) DEBRIS

Associated space launch

ASAT target satellite

COSMOS 1375 DEB was lifted into orbit during the mission ‘Kosmos-3M | DS-P1-M 16’, on board a Kosmos-3M space rocket.

The launch took place on June 6, 1982, 5:10 p.m. from 132/2.

For more information about the launch, click the button.

Launch to space Kosmos-3M | DS-P1-M 16
Kosmos-3M | DS-P1-M 16

Agency: N/A

Status: Launch Successful

Launch date: June 6, 1982, 5:10 p.m. UTC

Rocket: Kosmos-3M

Launch pad: 132/2

Location: Plesetsk Cosmodrome, Russian Federation

...

Latest news about this satellite

There are no fresh news available about this satellite. Check back as we update our databases every day.


Newsletter sign-up

Weekly statistics, charts and insights to help you stay on top of the space industry.